Regional Weather Roundup
Issued by NWS New Orleans/Baton Rouge, LA

Home | Current Version | Previous Version | Text Only | Print | Product List | Glossary Off
Versions: 1 2 3 4 5 6 7 8 9 10 11 12 13 14 15 16 17 18 19 20 21 22 23 24 25 26 27 28 29 30 31 32 33 34 35 36 37 38 39 40 41 42 43 44 45 46 47 48 49 50

309
ASUS44 KLIX 221305
RWRLIX
NEW ORLEANS REGIONAL WEATHER ROUNDUP
NATIONAL WEATHER SERVICE NEW ORLEANS LA
700 AM CST MON DEC 22 2014

NOTE: "FAIR" INDICATES FEW OR NO CLOUDS BELOW 12,000 FEET WITH NO
      SIGNIFICANT WEATHER AND/OR OBSTRUCTIONS TO VISIBILITY.
      SKY/WX - SKY CONDITION AND SIGNIFICANT WEATHER.
      TMP - AIR TEMPERATURE.     DP    - DEWPOINT TEMPERATURE.
      RH  - RELATIVE HUMIDITY.   PRES  - PRESSURE.
      HI  - HEAT INDEX.          WCI   - WIND CHILL INDEX.

*  THESE STATIONS ARE NOT NWS OR FAA STATIONS AND ARE NOT UNDER
   NWS QUALITY CONTROL.

LAZ038-040-048-061>063-065>067-069-221400-
SOUTHEAST LOUISIANA

CITY           SKY/WX    TMP DP  RH WIND       PRES   REMARKS
N.O. AUDUBON     N/A     60  59  99 MISG        N/A
N.O. INTL ARPT LGT RAIN  59  57  93 E5        29.85S FOG
N.O. LAKEFRONT CLOUDY    59  57  93 E7        29.86S FOG
N.O. DOWNTOWN* CLOUDY    59  55  88 CALM      29.86S
SLIDELL        CLOUDY    58  56  93 E3        29.85F FOG
BATON ROUGE    LGT RAIN  55  54  96 E6        29.83F VSB 1/4
BOOTHVILLE     FOG       62  62 100 SE5       29.86S VSB 1/2
BELLE CHASSE   RAIN      60  58  92 CALM      29.85S FOG
BOGALUSA*      FOG       58  55  92 SE5       29.87F VSB 1/2
GALLIANO*      CLOUDY    55  54  99 MISG      29.85S FOG
NEW ROADS*     FOG       54  54  99 E3        29.83S VSB 1/4
GONZALES*      FOG       57  57 100 CALM      29.84S VSB 1/2
HAMMOND*       NOT AVBL
HOUMA*         RAIN      57  57 100 CALM      29.84S
PORT FOURCHON* CLOUDY    63  63 100 CALM      29.88R FOG

$$

MSZ070-080>082-221400-
SOUTHERN MISSISSIPPI

CITY           SKY/WX    TMP DP  RH WIND       PRES   REMARKS
MCCOMB         FOG       54  53  97 SE8       29.84F VSB 1/4
GULFPORT       RAIN      60  59  96 SE10      29.85F FOG
BILOXI         LGT RAIN  60  60 100 E8        29.87R FOG
PASCAGOULA     LGT RAIN  58  58 100 E7        29.87F FOG
STENNIS ARPT*  LGT RAIN  59  55  88 E6        29.87  FOG

$$

COASTAL OBSERVATIONS
LAKE AND NEARSHORE STATIONS

STATION/POSITION TIME  TEMP    WIND        PRES    WAVE
                       AIR SEA DIR/SP/G            HT/PER
                 (UTC) (F)     (DEG/KT/KT) (MB)    (FT/S)
PASCAGOULA       1300   59      70/  8/ 12 1011.2
WAVELAND YACHT   1300   58     360/  2/  3 1010.5
GRAND ISLE       1300   63 60  140/  4/  6 1010.7
SOUTHWEST PASS   1300   68                 1010.9
NEW CANAL        1300   58 56   80/  3/  5 1011.0
SHELL BEACH      1300   58 57   50/  6/  7 1010.8

OFFSHORE STATIONS

STATION/POSITION TIME  TEMP    WIND        PRES    WAVE
                       AIR SEA DIR/SP/G            HT/PER
                 (UTC) (F)     (DEG/KT/KT) (MB)    (FT/S)
64 S DAUPHIN ISL 1300   72 74  150/ 12/ 12 1010.9    3/ 5

$$




USA.gov is the U.S. government's official web portal to all federal, state and local government web resources and services.